#timestamp,LO_Frequency,Hit,StdDev 
1582372815.7,286046998.1,N
1582372835.6,286046998.6,N
1582372855.4,286047001.6,N
1582372875.2,286047002.9,N
1582372895.1,286047005.1,N
1582372896.0,286047005.1,N
1582372915.8,286047005.0,N
1582372935.6,286047006.9,N
1582372955.5,286047010.4,N
1582372975.3,286047010.5,N
1582372995.2,286047007.4,N
1582373015.9,286047003.3,N
1582373035.7,286047000.3,N
1582373055.6,286046999.5,N
1582373075.4,286046995.0,N
1582373095.2,286046995.0,N
1582373115.1,286046993.4,N
1582373116.0,286046993.4,N
1582373135.8,286046997.5,N
1582373155.7,286046996.8,N
1582373175.5,286046998.1,N
1582373195.3,286047002.4,N
1582373215.2,286047002.1,N
1582373235.0,286047004.1,N
1582373235.9,286047004.1,N
1582373255.8,286047007.1,N
1582373275.6,286047008.3,N
1582373295.4,286047006.2,N
1582373315.3,286047004.8,N
1582373335.1,286047002.4,N
1582373355.8,286047000.9,N
1582373375.7,286046999.1,N
1582373395.5,286046998.0,N
1582373415.4,286046995.8,N
1582373435.2,286046994.9,N
1582373455.0,286046996.9,N
1582373455.9,286046996.9,N
1582373475.8,286046998.9,N
1582373495.6,286046999.4,N
1582373515.5,286047001.2,N
1582373535.3,286047000.5,N
1582373555.1,286046999.9,N
1582373575.9,286046996.7,N
1582373595.7,286046997.5,N
1582373615.5,286046995.9,N
1582373635.4,286046994.1,N
1582373655.2,286046992.3,N
1582373675.1,286046992.5,N
1582373676.0,286046992.5,N
1582373695.8,286046994.3,N
1582373715.6,286046992.1,N
1582373735.5,286046994.4,N
1582373755.3,286046995.0,N
1582373775.1,286046999.5,N
1582373795.9,286046999.9,N
1582373815.7,286047002.3,N
1582373835.6,286047001.6,N
1582373855.4,286047001.2,N
1582373875.2,286046999.5,N
1582373895.1,286046995.5,N
1582373896.0,286046995.5,N
1582373915.8,286046994.9,N
1582373935.7,286046996.3,N
1582373955.5,286046991.7,N
1582373975.3,286046993.3,N
1582373995.2,286046997.1,N
1582374015.0,286046996.8,N
1582374015.9,286046996.8,N
1582374035.8,286047001.2,N
1582374055.6,286046998.7,N
1582374075.4,286046996.6,N
1582374095.3,286047000.8,N
1582374115.1,286047001.8,N
1582374135.8,286046999.7,N
1582374155.7,286046996.5,N
1582374175.5,286046997.4,N
1582374195.4,286046997.9,N
1582374215.2,286046995.5,N
1582374235.0,286046995.5,N
1582374235.9,286046995.5,N
1582374255.8,286046996.3,N
1582374275.6,286046996.4,N
1582374295.4,286046997.2,N
1582374315.3,286046997.8,N
1582374335.1,286046997.7,N
1582374355.9,286046997.8,N
1582374375.7,286046997.4,N
1582374395.5,286046997.9,N
1582374415.4,286046995.1,N
1582374435.2,286046998.0,N
1582374455.1,286046997.9,N
1582374456.0,286046997.9,N
1582374475.8,286046993.6,Y
1582374495.6,286046997.1,P
1582374515.5,286046997.6,P
1582374535.3,286046997.5,P
1582374555.2,286046996.2,Y
1582374575.9,286046999.1,P
1582374595.7,286046999.9,N
1582374615.6,286047002.1,N
1582374635.4,286047002.3,N
1582374655.2,286047002.0,N
1582374675.1,286047005.9,Y
1582374676.0,286047005.9,P
1582374695.8,286047005.5,N
1582374715.7,286047005.0,N
1582374735.5,286047003.5,N
1582374755.3,286047002.2,N
1582374775.2,286047000.7,N
1582374795.0,286046998.6,N
1582374795.9,286046998.6,N
1582374815.8,286046998.6,N
1582374835.6,286047001.0,N
1582374855.4,286046998.5,N
1582374875.3,286047000.7,N
1582374895.1,286047001.7,N
1582374915.8,286047004.3,N
1582374935.7,286047003.3,N
1582374955.5,286047005.0,N
1582374975.4,286047005.2,N
1582374995.2,286047005.6,N
1582375015.0,286046999.7,N
1582375015.9,286046999.7,N
1582375035.8,286047000.6,N
1582375055.6,286046998.7,N
1582375075.5,286046995.8,N
1582375095.3,286046995.2,N
1582375115.1,286046994.9,N
1582375135.9,286046994.9,N
1582375155.7,286046995.3,N
1582375175.6,286046997.6,N
1582375195.4,286046997.1,N
1582375215.2,286046998.6,N
1582375235.1,286046999.9,N
1582375236.0,286046999.9,N
1582375255.8,286046998.2,N
1582375275.7,286046999.4,N
1582375295.5,286046996.5,N
1582375315.3,286046995.1,N
1582375335.2,286046996.4,N
1582375355.9,286046993.6,N
1582375375.7,286046993.9,N
1582375395.6,286046994.9,N
1582375415.4,286046997.8,N
1582375435.3,286046997.4,N
1582375455.1,286046996.8,N
1582375456.0,286046996.8,N
1582375475.8,286046996.7,N
1582375495.7,286046997.0,N
1582375515.5,286046998.6,N
1582375535.3,286046998.8,N
1582375555.2,286046999.6,N
1582375575.0,286046997.6,N
1582375575.9,286046997.6,N
1582375595.8,286046997.2,N
1582375615.6,286046997.4,N
1582375635.4,286046994.9,Y
1582375655.3,286046996.6,P
1582375675.1,286047000.4,N
1582375695.9,286047001.9,N
1582375715.7,286047001.3,N
1582375735.5,286047004.4,N
1582375755.4,286047002.7,N
1582375775.2,286047000.1,N
1582375795.0,286046999.8,N
1582375795.9,286046999.8,N
1582375815.8,286047000.1,N
1582375835.6,286047000.7,N
1582375855.5,286046998.7,N
1582375875.3,286047000.8,N
1582375895.1,286046999.0,N
1582375915.9,286046996.7,N
1582375935.7,286046995.0,N
1582375955.6,286046995.6,N
1582375975.4,286046994.9,N
1582375995.2,286046998.4,N
1582376015.1,286046999.3,N
1582376016.0,286046999.3,N
1582376035.8,286046998.7,N
1582376055.6,286046998.9,N
1582376075.5,286047002.8,N
1582376095.3,286047002.5,N
1582376115.2,286047002.7,N
1582376135.9,286047001.0,N
1582376155.7,286046998.8,N
1582376175.6,286046999.4,N
1582376195.4,286046999.0,N
1582376215.2,286046997.1,N
1582376235.1,286046997.2,N
1582376236.0,286046997.2,N
1582376255.8,286046999.0,N
1582376275.7,286046998.8,N
1582376295.5,286046998.8,N
1582376315.3,286047000.6,N
1582376335.2,286046999.3,N
1582376355.0,286046996.5,N
1582376355.9,286046996.5,N
1582376375.8,286046999.4,N
1582376395.6,286046997.1,N
